Terminal Aerodrome Forecast
Issued by NWS

Home | Current Version | Previous Version | Text Only | Print | Product List | Glossary On
Versions: 1 2 3 4 5 6 7 8 9 10 11 12 13
000
FTUS43 KAPX 291120
TAFPLN
TAF
KPLN 291120Z 2912/3012 VRB03KT P6SM SCT150 BKN250
     FM291300 19007KT P6SM VCSH SCT040 BKN080
     FM291700 25010KT P6SM SCT070
     FM300100 26007KT P6SM SKC=

USA.gov is the U.S. government's official web portal to all federal, state and local government web resources and services.